Location: Famechon
(49.7599°N, 2.0615°E)
Time: 07:30:17
(UTC+00:00)

RESURS DK-1 - Pass Details

Date: 03 February 2023
Orbit: 549 x 557 km, 69.9° (Epoch: 22 March)

Event Time Altitude Azimuth Distance (km) Brightness Sun altitude
Rises 18:11:56 0° 330° (NNW) 2,741 6.2 -13.5°
Reaches altitude 10° 18:14:09 10° 334° (NNW) 1,844 5.2 -13.8°
Maximum altitude 18:18:15 68° 58° (ENE) 603 2.2 -14.5°
Drops below altitude 10° 18:22:20 10° 141° (SE) 1,837 4.7 -15.1°
Enters shadow 18:22:47 - 142° (SE) 2,013 4.9 -15.2°
